Time,TemperatureF,DewpointF,PressureIn,WindDirection,WindDirectionDegrees,WindSpeedMPH,WindSpeedGustMPH,Humidity,HourlyPrecipIn,Conditions,Clouds,dailyrainin,SoftwareType,DateUTC
2013-09-15 00:01:00,56.1,52.9,30.10,ESE,122,0.0,0.0,89,0.00,,,0.00,WeatherDisplay:10.37,2013-09-15 04:01:00,
2013-09-15 00:04:00,56.0,51.9,30.10,ESE,122,0.0,0.0,86,0.00,,,0.00,WeatherDisplay:10.37,2013-09-15 04:04:00,
2013-09-15 00:07:00,56.0,51.9,30.10,ESE,122,0.0,0.0,86,0.00,,,0.00,WeatherDisplay:10.37,2013-09-15 04:07:00,
2013-09-15 00:12:00,55.9,51.8,30.10,ESE,122,0.0,0.0,86,0.00,,,0.00,WeatherDisplay:10.37,2013-09-15 04:12:00,
2013-09-15 00:17:00,55.8,51.7,30.10,ESE,122,0.0,0.0,86,0.00,,,0.00,WeatherDisplay:10.37,2013-09-15 04:17:00,
2013-09-15 00:22:00,55.7,51.9,30.10,ESE,122,0.0,0.0,87,0.00,,,0.00,WeatherDisplay:10.37,2013-09-15 04:22:00,
2013-09-15 00:27:00,55.6,51.8,30.10,ESE,122,0.0,0.0,87,0.00,,,0.00,WeatherDisplay:10.37,2013-09-15 04:27:00,
2013-09-15 00:32:00,55.5,51.7,30.10,ESE,122,0.0,0.0,87,0.00,,,0.00,WeatherDisplay:10.37,2013-09-15 04:32:00,
2013-09-15 00:37:00,55.4,51.6,30.10,ESE,122,0.0,0.0,87,0.00,,,0.00,WeatherDisplay:10.37,2013-09-15 04:37:00,
2013-09-15 00:42:00,55.2,51.4,30.10,ESE,122,0.0,0.0,87,0.00,,,0.00,WeatherDisplay:10.37,2013-09-15 04:42:00,
2013-09-15 00:47:00,55.1,51.3,30.10,ESE,122,0.0,0.0,87,0.00,,,0.00,WeatherDisplay:10.37,2013-09-15 04:47:00,
2013-09-15 00:52:00,54.9,51.1,30.10,ESE,122,0.0,0.0,87,0.00,,,0.00,WeatherDisplay:10.37,2013-09-15 04:52:00,
2013-09-15 00:57:00,54.8,51.0,30.10,ESE,122,0.0,0.0,87,0.00,,,0.00,WeatherDisplay:10.37,2013-09-15 04:57:00,
2013-09-15 01:02:00,54.6,50.8,30.10,ESE,122,0.0,0.0,87,0.00,,,0.00,WeatherDisplay:10.37,2013-09-15 05:02:00,
2013-09-15 01:07:00,54.5,51.0,30.10,ESE,122,0.0,0.0,88,0.00,,,0.00,WeatherDisplay:10.37,2013-09-15 05:07:00,
2013-09-15 01:12:00,54.4,50.9,30.10,ESE,122,0.0,0.0,88,0.00,,,0.00,WeatherDisplay:10.37,2013-09-15 05:12:00,
2013-09-15 01:17:00,54.4,50.9,30.10,ESE,122,0.0,0.0,88,0.00,,,0.00,WeatherDisplay:10.37,2013-09-15 05:17:00,
2013-09-15 01:22:00,54.3,50.8,30.10,ESE,122,0.0,0.0,88,0.00,,,0.00,WeatherDisplay:10.37,2013-09-15 05:22:00,
2013-09-15 01:27:00,54.2,50.7,30.10,ESE,122,0.0,0.0,88,0.00,,,0.00,WeatherDisplay:10.37,2013-09-15 05:27:00,
2013-09-15 01:32:00,54.1,50.6,30.11,ESE,122,0.0,0.0,88,0.00,,,0.00,WeatherDisplay:10.37,2013-09-15 05:32:00,
2013-09-15 01:37:00,54.0,50.5,30.11,ESE,122,0.0,0.0,88,0.00,,,0.00,WeatherDisplay:10.37,2013-09-15 05:37:00,
2013-09-15 01:42:00,53.9,50.4,30.11,ESE,122,0.0,0.0,88,0.00,,,0.00,WeatherDisplay:10.37,2013-09-15 05:42:00,
2013-09-15 01:47:00,53.8,50.6,30.11,ESE,122,0.0,0.0,89,0.00,,,0.00,WeatherDisplay:10.37,2013-09-15 05:47:00,
2013-09-15 01:52:00,53.7,50.5,30.11,ESE,122,0.0,0.0,89,0.00,,,0.00,WeatherDisplay:10.37,2013-09-15 05:52:00,
2013-09-15 01:57:00,53.6,50.4,30.11,ESE,122,0.0,0.0,89,0.00,,,0.00,WeatherDisplay:10.37,2013-09-15 05:57:00,
2013-09-15 02:02:00,53.5,50.3,30.11,ESE,122,0.0,0.0,89,0.00,,,0.00,WeatherDisplay:10.37,2013-09-15 06:02:00,
2013-09-15 02:07:00,53.4,50.2,30.11,ESE,122,0.0,0.0,89,0.00,,,0.00,WeatherDisplay:10.37,2013-09-15 06:07:00,
2013-09-15 02:12:00,53.3,50.1,30.12,ESE,122,0.0,0.0,89,0.00,,,0.00,WeatherDisplay:10.37,2013-09-15 06:12:00,
2013-09-15 02:17:00,53.3,50.1,30.12,ESE,122,0.0,0.0,89,0.00,,,0.00,WeatherDisplay:10.37,2013-09-15 06:17:00,
2013-09-15 02:22:00,53.2,50.6,30.11,ESE,122,0.0,0.0,91,0.00,,,0.00,WeatherDisplay:10.37,2013-09-15 06:22:00,
2013-09-15 02:27:00,53.2,50.6,30.11,ESE,122,0.0,0.0,91,0.00,,,0.00,WeatherDisplay:10.37,2013-09-15 06:27:00,
2013-09-15 02:32:00,53.1,50.5,30.12,ESE,122,0.0,0.0,91,0.00,,,0.00,WeatherDisplay:10.37,2013-09-15 06:32:00,
2013-09-15 02:37:00,53.1,50.5,30.12,ESE,122,0.0,0.0,91,0.00,,,0.00,WeatherDisplay:10.37,2013-09-15 06:37:00,
2013-09-15 02:42:00,53.0,50.4,30.12,ESE,122,0.0,0.0,91,0.00,,,0.00,WeatherDisplay:10.37,2013-09-15 06:42:00,
2013-09-15 02:47:00,52.9,50.3,30.12,ESE,122,0.0,0.0,91,0.00,,,0.00,WeatherDisplay:10.37,2013-09-15 06:47:00,
2013-09-15 02:52:00,52.8,50.2,30.12,ESE,122,0.0,0.0,91,0.00,,,0.00,WeatherDisplay:10.37,2013-09-15 06:52:00,
2013-09-15 02:57:00,52.8,50.5,30.11,ESE,122,0.0,0.0,92,0.00,,,0.00,WeatherDisplay:10.37,2013-09-15 06:57:00,
2013-09-15 03:02:00,52.7,50.1,30.12,ESE,122,0.0,0.0,91,0.00,,,0.00,WeatherDisplay:10.37,2013-09-15 07:02:00,
2013-09-15 03:07:00,52.6,50.0,30.12,ESE,122,0.0,0.0,91,0.00,,,0.00,WeatherDisplay:10.37,2013-09-15 07:07:00,
2013-09-15 03:12:00,52.6,50.3,30.12,ESE,122,0.0,0.0,92,0.00,,,0.00,WeatherDisplay:10.37,2013-09-15 07:12:00,
2013-09-15 03:17:00,52.5,50.2,30.12,ESE,122,0.0,0.0,92,0.00,,,0.00,WeatherDisplay:10.37,2013-09-15 07:17:00,
2013-09-15 03:22:00,52.4,50.1,30.12,ESE,122,0.0,0.0,92,0.00,,,0.00,WeatherDisplay:10.37,2013-09-15 07:22:00,
2013-09-15 03:27:00,52.3,50.0,30.13,ESE,122,0.0,0.0,92,0.00,,,0.00,WeatherDisplay:10.37,2013-09-15 07:27:00,
2013-09-15 03:32:00,52.3,50.0,30.13,ESE,122,0.0,0.0,92,0.00,,,0.00,WeatherDisplay:10.37,2013-09-15 07:32:00,
2013-09-15 03:37:00,52.3,50.0,30.13,ESE,122,0.0,0.0,92,0.00,,,0.00,WeatherDisplay:10.37,2013-09-15 07:37:00,
2013-09-15 03:42:00,52.3,50.0,30.13,ESE,122,0.0,0.0,92,0.00,,,0.00,WeatherDisplay:10.37,2013-09-15 07:42:00,
2013-09-15 03:47:00,52.3,50.0,30.13,ESE,122,0.0,0.0,92,0.00,,,0.00,WeatherDisplay:10.37,2013-09-15 07:47:00,
2013-09-15 03:52:00,52.3,50.3,30.13,ESE,122,0.0,0.0,93,0.00,,,0.00,WeatherDisplay:10.37,2013-09-15 07:52:00,
2013-09-15 03:57:00,52.3,50.3,30.13,ESE,122,0.0,0.0,93,0.00,,,0.00,WeatherDisplay:10.37,2013-09-15 07:57:00,
2013-09-15 04:02:00,52.2,50.2,30.15,ESE,122,0.0,0.0,93,0.00,,,0.00,WeatherDisplay:10.37,2013-09-15 08:02:00,
2013-09-15 04:07:00,51.9,49.9,30.14,ESE,122,0.0,0.0,93,0.00,,,0.00,WeatherDisplay:10.37,2013-09-15 08:07:00,
2013-09-15 04:12:00,51.6,49.6,30.15,ESE,122,0.0,0.0,93,0.00,,,0.00,WeatherDisplay:10.37,2013-09-15 08:12:00,
2013-09-15 04:17:00,51.5,49.5,30.15,ESE,122,0.0,0.0,93,0.00,,,0.00,WeatherDisplay:10.37,2013-09-15 08:17:00,
2013-09-15 04:22:00,51.4,49.4,30.15,ESE,122,0.0,0.0,93,0.00,,,0.00,WeatherDisplay:10.37,2013-09-15 08:22:00,
2013-09-15 04:27:00,51.3,49.3,30.15,ESE,122,0.0,0.0,93,0.00,,,0.00,WeatherDisplay:10.37,2013-09-15 08:27:00,
2013-09-15 04:32:00,51.3,49.3,30.15,ESE,122,0.0,0.0,93,0.00,,,0.00,WeatherDisplay:10.37,2013-09-15 08:32:00,
2013-09-15 04:37:00,51.2,49.2,30.15,ESE,122,0.0,0.0,93,0.00,,,0.00,WeatherDisplay:10.37,2013-09-15 08:37:00,
2013-09-15 04:42:00,51.1,49.1,30.15,ESE,122,0.0,0.0,93,0.00,,,0.00,WeatherDisplay:10.37,2013-09-15 08:42:00,
2013-09-15 04:47:00,51.1,49.1,30.15,ESE,122,0.0,0.0,93,0.00,,,0.00,WeatherDisplay:10.37,2013-09-15 08:47:00,
2013-09-15 04:52:00,51.0,49.0,30.15,ESE,122,0.0,0.0,93,0.00,,,0.00,WeatherDisplay:10.37,2013-09-15 08:52:00,
2013-09-15 04:57:00,51.0,49.0,30.15,ESE,122,0.0,0.0,93,0.00,,,0.00,WeatherDisplay:10.37,2013-09-15 08:57:00,
2013-09-15 05:02:00,51.0,49.0,30.15,ESE,122,0.0,0.0,93,0.00,,,0.00,WeatherDisplay:10.37,2013-09-15 09:02:00,
2013-09-15 05:07:00,50.9,48.9,30.15,ESE,122,0.0,0.0,93,0.00,,,0.00,WeatherDisplay:10.37,2013-09-15 09:07:00,
2013-09-15 05:12:00,50.9,48.9,30.15,ESE,122,0.0,0.0,93,0.00,,,0.00,WeatherDisplay:10.37,2013-09-15 09:12:00,
2013-09-15 05:17:00,50.8,48.8,30.15,ESE,122,0.0,0.0,93,0.00,,,0.00,WeatherDisplay:10.37,2013-09-15 09:17:00,
2013-09-15 05:22:00,50.8,48.8,30.15,ESE,122,0.0,0.0,93,0.00,,,0.00,WeatherDisplay:10.37,2013-09-15 09:22:00,
2013-09-15 05:27:00,50.7,48.7,30.15,ESE,122,0.0,0.0,93,0.00,,,0.00,WeatherDisplay:10.37,2013-09-15 09:27:00,
2013-09-15 05:32:00,50.6,48.7,30.16,ESE,122,0.0,0.0,93,0.00,,,0.00,WeatherDisplay:10.37,2013-09-15 09:32:00,
2013-09-15 05:37:00,50.6,48.7,30.16,ESE,122,0.0,0.0,93,0.00,,,0.00,WeatherDisplay:10.37,2013-09-15 09:37:00,
2013-09-15 05:42:00,50.6,48.7,30.16,ESE,122,0.0,0.0,93,0.00,,,0.00,WeatherDisplay:10.37,2013-09-15 09:42:00,
2013-09-15 05:47:00,50.6,48.7,30.16,ESE,122,0.0,0.0,93,0.00,,,0.00,WeatherDisplay:10.37,2013-09-15 09:47:00,
2013-09-15 05:52:00,50.6,48.9,30.16,ESE,122,0.0,0.0,94,0.00,,,0.00,WeatherDisplay:10.37,2013-09-15 09:52:00,
2013-09-15 05:57:00,50.5,48.8,30.16,ESE,122,0.0,0.0,94,0.00,,,0.00,WeatherDisplay:10.37,2013-09-15 09:57:00,
2013-09-15 06:08:00,50.5,48.8,30.16,ESE,122,0.0,0.0,94,0.00,CLR,,0.00,WeatherDisplay:10.37,2013-09-15 10:08:00,
2013-09-15 06:13:00,50.5,48.8,30.17,ESE,122,0.0,0.0,94,0.00,CLR,,0.00,WeatherDisplay:10.37,2013-09-15 10:13:00,
2013-09-15 06:18:00,50.5,48.8,30.17,ESE,122,0.0,0.0,94,0.00,CLR,,0.00,WeatherDisplay:10.37,2013-09-15 10:18:00,
2013-09-15 06:23:00,50.5,48.8,30.17,ESE,122,0.0,0.0,94,0.00,CLR,,0.00,WeatherDisplay:10.37,2013-09-15 10:23:00,
2013-09-15 06:28:00,50.5,48.8,30.17,ESE,122,0.0,0.0,94,0.00,CLR,,0.00,WeatherDisplay:10.37,2013-09-15 10:28:00,
2013-09-15 06:33:00,50.4,48.7,30.17,ESE,122,0.0,0.0,94,0.00,CLR,,0.00,WeatherDisplay:10.37,2013-09-15 10:33:00,
2013-09-15 06:38:00,50.4,48.7,30.17,ESE,122,0.0,0.0,94,0.00,CLR,,0.00,WeatherDisplay:10.37,2013-09-15 10:38:00,
2013-09-15 06:43:00,50.4,48.7,30.17,ESE,122,0.0,0.0,94,0.00,CLR,,0.00,WeatherDisplay:10.37,2013-09-15 10:43:00,
2013-09-15 06:48:00,50.4,48.7,30.17,ESE,122,0.0,0.0,94,0.00,CLR,,0.00,WeatherDisplay:10.37,2013-09-15 10:48:00,
2013-09-15 06:53:00,50.4,48.7,30.17,ESE,122,0.0,0.0,94,0.00,CLR,,0.00,WeatherDisplay:10.37,2013-09-15 10:53:00,
2013-09-15 06:58:00,50.3,48.6,30.17,ESE,122,0.0,0.0,94,0.00,CLR,,0.00,WeatherDisplay:10.37,2013-09-15 10:58:00,
2013-09-15 07:03:00,50.3,48.6,30.18,ESE,122,0.0,0.0,94,0.00,CLR,,0.00,WeatherDisplay:10.37,2013-09-15 11:03:00,
2013-09-15 07:08:00,50.2,48.5,30.18,ESE,122,0.0,0.0,94,0.00,CLR,,0.00,WeatherDisplay:10.37,2013-09-15 11:08:00,
2013-09-15 07:13:00,50.2,48.5,30.18,ESE,122,0.0,0.0,94,0.00,CLR,,0.00,WeatherDisplay:10.37,2013-09-15 11:13:00,
2013-09-15 07:18:00,50.2,48.5,30.18,ESE,122,0.0,0.0,94,0.00,CLR,,0.00,WeatherDisplay:10.37,2013-09-15 11:18:00,
2013-09-15 07:23:00,50.2,48.5,30.18,ESE,122,0.0,0.0,94,0.00,CLR,,0.00,WeatherDisplay:10.37,2013-09-15 11:23:00,
2013-09-15 07:28:00,50.2,48.5,30.18,ESE,122,0.0,0.0,94,0.00,CLR,,0.00,WeatherDisplay:10.37,2013-09-15 11:28:00,
2013-09-15 07:33:00,50.2,48.8,30.19,ESE,122,0.0,0.0,95,0.00,CLR,,0.00,WeatherDisplay:10.37,2013-09-15 11:33:00,
2013-09-15 07:38:00,50.3,48.9,30.19,ESE,122,0.0,0.0,95,0.00,CLR,,0.00,WeatherDisplay:10.37,2013-09-15 11:38:00,
2013-09-15 07:43:00,50.4,49.0,30.19,SE,128,0.0,0.0,95,0.00,CLR,,0.00,WeatherDisplay:10.37,2013-09-15 11:43:00,
2013-09-15 07:48:00,50.5,49.1,30.19,SE,128,0.0,0.0,95,0.00,CLR,,0.00,WeatherDisplay:10.37,2013-09-15 11:48:00,
2013-09-15 07:53:00,50.7,49.3,30.19,SE,128,0.0,0.0,95,0.00,CLR,,0.00,WeatherDisplay:10.37,2013-09-15 11:53:00,
2013-09-15 07:58:00,50.9,49.5,30.19,SE,128,0.0,0.0,95,0.00,CLR,,0.00,WeatherDisplay:10.37,2013-09-15 11:58:00,
2013-09-15 08:03:00,51.1,49.7,30.19,SE,128,0.0,0.0,95,0.00,CLR,,0.00,WeatherDisplay:10.37,2013-09-15 12:03:00,
2013-09-15 08:08:00,51.5,50.1,30.19,ESE,115,0.0,0.0,95,0.00,CLR,,0.00,WeatherDisplay:10.37,2013-09-15 12:08:00,
2013-09-15 08:13:00,52.1,51.0,30.19,SE,135,0.0,0.0,96,0.00,CLR,,0.00,WeatherDisplay:10.37,2013-09-15 12:13:00,
2013-09-15 08:18:00,53.3,52.2,30.19,SE,134,0.0,0.0,96,0.00,CLR,,0.00,WeatherDisplay:10.37,2013-09-15 12:18:00,
2013-09-15 08:23:00,54.4,53.8,30.19,SE,135,0.0,0.0,98,0.00,CLR,,0.00,WeatherDisplay:10.37,2013-09-15 12:23:00,
2013-09-15 08:28:00,55.4,54.8,30.19,SE,134,1.2,0.0,98,0.00,CLR,,0.00,WeatherDisplay:10.37,2013-09-15 12:28:00,
2013-09-15 08:33:00,56.1,55.5,30.19,ENE,73,1.2,1.2,98,0.00,CLR,,0.00,WeatherDisplay:10.37,2013-09-15 12:33:00,
2013-09-15 08:38:00,56.7,56.1,30.19,ENE,73,3.5,3.5,98,0.00,CLR,,0.00,WeatherDisplay:10.37,2013-09-15 12:38:00,
2013-09-15 08:43:00,57.4,56.8,30.19,ENE,73,3.5,3.5,98,0.00,CLR,,0.00,WeatherDisplay:10.37,2013-09-15 12:43:00,
2013-09-15 08:48:00,58.4,57.3,30.19,ENE,72,3.5,3.5,96,0.00,CLR,,0.00,WeatherDisplay:10.37,2013-09-15 12:48:00,
2013-09-15 08:53:00,59.1,57.7,30.19,ENE,73,0.0,0.0,95,0.00,CLR,,0.00,WeatherDisplay:10.37,2013-09-15 12:53:00,
2013-09-15 08:58:00,59.8,58.1,30.20,ENE,72,0.0,0.0,94,0.00,CLR,,0.00,WeatherDisplay:10.37,2013-09-15 12:58:00,
2013-09-15 09:03:00,60.7,58.7,30.20,SE,125,4.6,4.6,93,0.00,CLR,,0.00,WeatherDisplay:10.37,2013-09-15 13:03:00,
2013-09-15 09:08:00,61.7,59.0,30.20,ESE,123,3.5,3.5,91,0.00,CLR,,0.00,WeatherDisplay:10.37,2013-09-15 13:08:00,
2013-09-15 09:13:00,62.6,59.3,30.20,SE,124,0.0,0.1,89,0.00,CLR,,0.00,WeatherDisplay:10.37,2013-09-15 13:13:00,
2013-09-15 09:18:00,63.3,59.4,30.20,ESE,123,0.0,0.1,87,0.00,CLR,,0.00,WeatherDisplay:10.37,2013-09-15 13:18:00,
2013-09-15 09:23:00,64.2,59.3,30.20,SE,138,3.5,3.5,84,0.00,CLR,,0.00,WeatherDisplay:10.37,2013-09-15 13:23:00,
2013-09-15 09:28:00,65.0,58.7,30.20,SE,135,3.5,3.5,80,0.00,CLR,,0.00,WeatherDisplay:10.37,2013-09-15 13:28:00,
2013-09-15 09:33:00,65.7,59.0,30.20,SE,136,3.5,3.5,79,0.00,CLR,,0.00,WeatherDisplay:10.37,2013-09-15 13:33:00,
2013-09-15 09:38:00,66.6,58.8,30.20,East,88,3.5,3.5,76,0.00,CLR,,0.00,WeatherDisplay:10.37,2013-09-15 13:38:00,
2013-09-15 09:43:00,67.2,58.2,30.21,East,88,0.0,0.0,73,0.00,CLR,,0.00,WeatherDisplay:10.37,2013-09-15 13:43:00,
2013-09-15 09:48:00,67.9,58.1,30.21,ENE,78,1.2,1.2,71,0.00,CLR,,0.00,WeatherDisplay:10.37,2013-09-15 13:48:00,
2013-09-15 09:53:00,68.6,58.4,30.21,ESE,122,2.3,2.3,70,0.00,CLR,,0.00,WeatherDisplay:10.37,2013-09-15 13:53:00,
2013-09-15 09:58:00,69.3,57.9,30.21,SSE,161,5.8,5.8,67,0.00,CLR,,0.00,WeatherDisplay:10.37,2013-09-15 13:58:00,
2013-09-15 10:03:00,69.8,57.5,30.21,SE,140,4.6,4.6,65,0.00,CLR,,0.00,WeatherDisplay:10.37,2013-09-15 14:03:00,
2013-09-15 10:08:00,70.3,57.5,30.21,South,172,5.8,5.8,64,0.00,CLR,,0.00,WeatherDisplay:10.37,2013-09-15 14:08:00,
2013-09-15 10:13:00,70.7,57.9,30.21,South,173,1.2,1.3,64,0.00,CLR,,0.00,WeatherDisplay:10.37,2013-09-15 14:13:00,
2013-09-15 10:18:00,71.3,58.1,30.21,South,172,3.5,3.5,63,0.00,CLR,,0.00,WeatherDisplay:10.37,2013-09-15 14:18:00,
2013-09-15 10:23:00,71.6,57.9,30.21,SSW,197,4.6,4.6,62,0.00,CLR,,0.00,WeatherDisplay:10.37,2013-09-15 14:23:00,
2013-09-15 10:28:00,71.9,57.3,30.21,ESE,108,5.8,5.8,60,0.00,CLR,,0.00,WeatherDisplay:10.37,2013-09-15 14:28:00,
2013-09-15 10:33:00,72.1,57.4,30.21,ENE,71,0.0,0.0,60,0.00,CLR,,0.00,WeatherDisplay:10.37,2013-09-15 14:33:00,
2013-09-15 10:38:00,72.3,56.7,30.21,ESE,107,4.6,4.6,58,0.00,CLR,,0.00,WeatherDisplay:10.37,2013-09-15 14:38:00,
2013-09-15 10:39:00,72.3,56.7,30.21,ESE,107,4.6,4.6,58,0.00,CLR,,0.00,WeatherDisplay:10.37,2013-09-15 14:39:00,
2013-09-15 10:44:00,72.5,56.4,30.21,ESE,115,3.5,3.5,57,0.00,CLR,,0.00,WeatherDisplay:10.37,2013-09-15 14:44:00,
2013-09-15 10:49:00,73.2,57.1,30.21,ESE,117,0.0,0.0,57,0.00,CLR,,0.00,WeatherDisplay:10.37,2013-09-15 14:49:00,
2013-09-15 10:54:00,73.8,57.1,30.21,ESE,111,1.2,1.2,56,0.00,CLR,,0.00,WeatherDisplay:10.37,2013-09-15 14:54:00,
2013-09-15 10:59:00,74.2,57.0,30.21,ENE,78,3.5,3.5,55,0.00,CLR,,0.00,WeatherDisplay:10.37,2013-09-15 14:59:00,
2013-09-15 11:04:00,74.5,56.8,30.21,ENE,78,3.5,3.5,54,0.00,CLR,,0.00,WeatherDisplay:10.37,2013-09-15 15:04:00,
2013-09-15 11:09:00,74.7,56.4,30.21,SSW,209,1.2,1.2,53,0.00,CLR,,0.00,WeatherDisplay:10.37,2013-09-15 15:09:00,
2013-09-15 11:14:00,74.9,56.1,30.21,ESE,113,2.3,2.3,52,0.00,CLR,,0.00,WeatherDisplay:10.37,2013-09-15 15:14:00,
2013-09-15 11:19:00,74.9,56.1,30.21,ESE,112,0.0,0.0,52,0.00,CLR,,0.00,WeatherDisplay:10.37,2013-09-15 15:19:00,
2013-09-15 11:24:00,75.2,55.3,30.21,WNW,294,1.0,1.0,50,0.00,CLR,,0.00,WeatherDisplay:10.37,2013-09-15 15:24:00,
2013-09-15 11:29:00,75.6,55.1,30.21,NW,319,3.5,3.5,49,0.00,CLR,,0.00,WeatherDisplay:10.37,2013-09-15 15:29:00,
2013-09-15 11:34:00,75.5,53.9,30.21,NW,319,4.0,4.0,47,0.00,CLR,,0.00,WeatherDisplay:10.37,2013-09-15 15:34:00,
2013-09-15 11:39:00,75.6,54.5,30.21,NW,325,3.5,3.5,48,0.00,CLR,,0.00,WeatherDisplay:10.37,2013-09-15 15:39:00,
2013-09-15 11:44:00,75.9,53.6,30.21,NNW,331,1.2,1.2,46,0.00,CLR,,0.00,WeatherDisplay:10.37,2013-09-15 15:44:00,
2013-09-15 11:49:00,76.2,53.3,30.21,NNW,331,1.2,1.2,45,0.00,CLR,,0.00,WeatherDisplay:10.37,2013-09-15 15:49:00,
2013-09-15 11:54:00,76.5,54.8,30.20,North,355,1.2,1.2,47,0.00,CLR,,0.00,WeatherDisplay:10.37,2013-09-15 15:54:00,
2013-09-15 11:59:00,77.0,54.6,30.20,North,355,0.0,0.0,46,0.00,CLR,,0.00,WeatherDisplay:10.37,2013-09-15 15:59:00,
2013-09-15 12:04:00,77.5,55.1,30.20,SW,236,3.5,3.5,46,0.00,CLR,,0.00,WeatherDisplay:10.37,2013-09-15 16:04:00,
2013-09-15 12:09:00,77.8,54.1,30.20,SW,220,3.5,3.5,44,0.00,CLR,,0.00,WeatherDisplay:10.37,2013-09-15 16:09:00,
2013-09-15 12:14:00,78.0,53.7,30.20,SSW,196,6.9,6.9,43,0.00,CLR,,0.00,WeatherDisplay:10.37,2013-09-15 16:14:00,
2013-09-15 12:19:00,78.3,54.6,30.20,South,190,1.2,1.2,44,0.00,CLR,,0.00,WeatherDisplay:10.37,2013-09-15 16:19:00,
2013-09-15 12:24:00,78.3,54.0,30.19,East,97,3.5,0.0,43,0.00,CLR,,0.00,WeatherDisplay:10.37,2013-09-15 16:24:00,
2013-09-15 12:29:00,78.2,53.9,30.19,ESE,119,4.6,4.6,43,0.00,CLR,,0.00,WeatherDisplay:10.37,2013-09-15 16:29:00,
2013-09-15 12:34:00,78.4,54.0,30.19,West,264,3.5,3.5,43,0.00,CLR,,0.00,WeatherDisplay:10.37,2013-09-15 16:34:00,
2013-09-15 12:39:00,78.5,54.1,30.19,WNW,293,5.0,5.0,43,0.00,CLR,,0.00,WeatherDisplay:10.37,2013-09-15 16:39:00,
2013-09-15 12:44:00,78.4,52.7,30.19,West,269,4.6,4.6,41,0.00,CLR,,0.00,WeatherDisplay:10.37,2013-09-15 16:44:00,
2013-09-15 12:49:00,78.8,53.1,30.19,SW,232,4.6,4.6,41,0.00,CLR,,0.00,WeatherDisplay:10.37,2013-09-15 16:49:00,
2013-09-15 12:54:00,78.8,53.1,30.18,NNE,16,5.8,5.8,41,0.00,CLR,,0.00,WeatherDisplay:10.37,2013-09-15 16:54:00,
2013-09-15 12:59:00,78.8,53.8,30.18,NW,309,3.5,3.5,42,0.00,CLR,,0.00,WeatherDisplay:10.37,2013-09-15 16:59:00,
2013-09-15 13:04:00,79.3,54.2,30.18,NW,309,1.2,0.0,42,0.00,CLR,,0.00,WeatherDisplay:10.37,2013-09-15 17:04:00,
2013-09-15 13:09:00,79.8,54.0,30.18,SW,223,4.6,4.6,41,0.00,CLR,,0.00,WeatherDisplay:10.37,2013-09-15 17:09:00,
2013-09-15 13:14:00,80.2,53.7,30.17,SW,222,0.0,0.0,40,0.00,CLR,,0.00,WeatherDisplay:10.37,2013-09-15 17:14:00,
2013-09-15 13:19:00,80.4,53.9,30.17,West,274,3.5,3.5,40,0.00,CLR,,0.00,WeatherDisplay:10.37,2013-09-15 17:19:00,
2013-09-15 13:24:00,80.8,53.5,30.17,WNW,287,1.2,1.2,39,0.00,CLR,,0.00,WeatherDisplay:10.37,2013-09-15 17:24:00,
2013-09-15 13:29:00,81.3,53.3,30.17,WNW,287,2.3,2.3,38,0.00,CLR,,0.00,WeatherDisplay:10.37,2013-09-15 17:29:00,
2013-09-15 13:34:00,81.3,55.3,30.17,WNW,295,1.2,1.2,41,0.00,CLR,,0.00,WeatherDisplay:10.37,2013-09-15 17:34:00,
2013-09-15 13:39:00,81.4,53.4,30.17,WNW,295,3.5,3.5,38,0.00,CLR,,0.00,WeatherDisplay:10.37,2013-09-15 17:39:00,
2013-09-15 13:44:00,81.7,55.0,30.17,WSW,240,6.9,6.9,40,0.00,CLR,,0.00,WeatherDisplay:10.37,2013-09-15 17:44:00,
2013-09-15 13:49:00,81.6,54.2,30.16,SSW,203,5.8,5.8,39,0.00,CLR,,0.00,WeatherDisplay:10.37,2013-09-15 17:49:00,
2013-09-15 13:54:00,81.6,54.2,30.16,ESE,122,4.6,4.6,39,0.00,CLR,,0.00,WeatherDisplay:10.37,2013-09-15 17:54:00,
2013-09-15 13:59:00,81.6,54.2,30.16,ENE,70,5.0,5.0,39,0.00,CLR,,0.00,WeatherDisplay:10.37,2013-09-15 17:59:00,
2013-09-15 14:04:00,81.0,53.7,30.16,SW,214,3.5,3.5,39,0.00,CLR,,0.00,WeatherDisplay:10.37,2013-09-15 18:04:00,
2013-09-15 14:09:00,81.5,55.5,30.16,WSW,253,4.6,4.8,41,0.00,CLR,,0.00,WeatherDisplay:10.37,2013-09-15 18:09:00,
2013-09-15 14:14:00,81.8,54.4,30.15,SW,236,5.8,5.8,39,0.00,CLR,,0.00,WeatherDisplay:10.37,2013-09-15 18:14:00,
2013-09-15 14:19:00,82.0,54.6,30.15,WSW,251,1.2,1.2,39,0.00,CLR,,0.00,WeatherDisplay:10.37,2013-09-15 18:19:00,
2013-09-15 14:24:00,82.3,55.6,30.15,SW,223,6.9,6.9,40,0.00,CLR,,0.00,WeatherDisplay:10.37,2013-09-15 18:24:00,
2013-09-15 14:29:00,82.4,55.0,30.15,SSW,199,5.8,5.8,39,0.00,CLR,,0.00,WeatherDisplay:10.37,2013-09-15 18:29:00,
2013-09-15 14:34:00,82.6,55.8,30.15,South,173,6.0,6.0,40,0.00,CLR,,0.00,WeatherDisplay:10.37,2013-09-15 18:34:00,
2013-09-15 14:39:00,82.7,54.5,30.14,SSE,168,2.3,0.0,38,0.00,CLR,,0.00,WeatherDisplay:10.37,2013-09-15 18:39:00,
2013-09-15 14:44:00,82.8,56.0,30.14,SW,221,5.8,5.8,40,0.00,CLR,,0.00,WeatherDisplay:10.37,2013-09-15 18:44:00,
2013-09-15 14:49:00,82.9,55.4,30.14,WNW,302,4.6,4.6,39,0.00,CLR,,0.00,WeatherDisplay:10.37,2013-09-15 18:49:00,
2013-09-15 14:54:00,83.0,56.2,30.14,SW,221,4.6,0.0,40,0.00,CLR,,0.00,WeatherDisplay:10.37,2013-09-15 18:54:00,
2013-09-15 14:59:00,83.2,56.4,30.14,SW,214,3.5,3.5,40,0.00,CLR,,0.00,WeatherDisplay:10.37,2013-09-15 18:59:00,
2013-09-15 15:04:00,83.2,55.7,30.14,WSW,256,6.9,6.9,39,0.00,CLR,,0.00,WeatherDisplay:10.37,2013-09-15 19:04:00,
2013-09-15 15:09:00,82.9,55.4,30.13,WNW,302,3.5,3.5,39,0.00,CLR,,0.00,WeatherDisplay:10.37,2013-09-15 19:09:00,
2013-09-15 15:14:00,82.8,56.7,30.13,West,271,3.0,3.0,41,0.00,CLR,,0.00,WeatherDisplay:10.37,2013-09-15 19:14:00,
2013-09-15 15:19:00,82.9,56.1,30.13,WSW,244,4.6,4.6,40,0.00,CLR,,0.00,WeatherDisplay:10.37,2013-09-15 19:19:00,
2013-09-15 15:23:00,82.9,56.1,30.13,WNW,300,1.2,1.2,40,0.00,CLR,,0.00,WeatherDisplay:10.37,2013-09-15 19:23:00,
2013-09-15 15:28:00,83.0,56.2,30.12,SW,219,5.8,5.8,40,0.00,CLR,,0.00,WeatherDisplay:10.37,2013-09-15 19:28:00,
2013-09-15 15:33:00,82.8,57.4,30.12,NW,313,3.5,3.5,42,0.00,CLR,,0.00,WeatherDisplay:10.37,2013-09-15 19:33:00,
2013-09-15 15:38:00,82.6,56.5,30.12,NW,313,3.5,3.5,41,0.00,CLR,,0.00,WeatherDisplay:10.37,2013-09-15 19:38:00,
2013-09-15 15:43:00,82.2,56.2,30.12,NW,313,0.0,0.0,41,0.00,CLR,,0.00,WeatherDisplay:10.37,2013-09-15 19:43:00,
2013-09-15 15:48:00,82.3,57.6,30.12,West,273,6.0,6.0,43,0.00,CLR,,0.00,WeatherDisplay:10.37,2013-09-15 19:48:00,
2013-09-15 15:53:00,82.6,57.2,30.12,SW,217,5.8,5.8,42,0.00,CLR,,0.00,WeatherDisplay:10.37,2013-09-15 19:53:00,
2013-09-15 15:58:00,83.0,57.5,30.11,WSW,253,16.1,16.1,42,0.00,CLR,,0.00,WeatherDisplay:10.37,2013-09-15 19:58:00,
2013-09-15 16:03:00,83.0,57.5,30.11,SW,226,9.2,9.2,42,0.00,CLR,,0.00,WeatherDisplay:10.37,2013-09-15 20:03:00,
2013-09-15 16:08:00,82.9,57.5,30.11,SSW,207,10.4,10.4,42,0.00,CLR,,0.00,WeatherDisplay:10.37,2013-09-15 20:08:00,
2013-09-15 16:13:00,82.8,57.4,30.11,SW,222,5.8,5.8,42,0.00,CLR,,0.00,WeatherDisplay:10.37,2013-09-15 20:13:00,
2013-09-15 16:18:00,82.6,58.5,30.11,SW,215,4.6,4.6,44,0.00,CLR,,0.00,WeatherDisplay:10.37,2013-09-15 20:18:00,
2013-09-15 16:23:00,82.5,57.7,30.11,SW,230,10.0,10.0,43,0.00,CLR,,0.00,WeatherDisplay:10.37,2013-09-15 20:23:00,
2013-09-15 16:28:00,82.2,57.5,30.11,SSW,196,10.4,10.4,43,0.00,CLR,,0.00,WeatherDisplay:10.37,2013-09-15 20:28:00,
2013-09-15 16:33:00,81.5,58.1,30.11,SW,227,2.3,2.3,45,0.00,CLR,,0.00,WeatherDisplay:10.37,2013-09-15 20:33:00,
2013-09-15 16:38:00,81.3,57.9,30.11,WNW,292,4.6,4.6,45,0.00,CLR,,0.00,WeatherDisplay:10.37,2013-09-15 20:38:00,
2013-09-15 16:43:00,81.3,58.5,30.11,SSW,192,1.2,1.2,46,0.00,CLR,,0.00,WeatherDisplay:10.37,2013-09-15 20:43:00,
2013-09-15 16:48:00,81.3,58.5,30.11,South,188,8.1,8.1,46,0.00,CLR,,0.00,WeatherDisplay:10.37,2013-09-15 20:48:00,
2013-09-15 16:53:00,80.9,58.2,30.11,SSW,209,4.6,4.6,46,0.00,CLR,,0.00,WeatherDisplay:10.37,2013-09-15 20:53:00,
2013-09-15 16:58:00,80.4,58.3,30.11,SSW,203,3.5,4.4,47,0.00,CLR,,0.00,WeatherDisplay:10.37,2013-09-15 20:58:00,
2013-09-15 17:03:00,80.0,58.5,30.11,SSW,207,0.0,0.0,48,0.00,CLR,,0.00,WeatherDisplay:10.37,2013-09-15 21:03:00,
2013-09-15 17:08:00,79.8,60.1,30.11,SSW,209,1.2,1.2,51,0.00,CLR,,0.00,WeatherDisplay:10.37,2013-09-15 21:08:00,
2013-09-15 17:13:00,79.8,59.5,30.10,SSW,209,1.2,0.0,50,0.00,CLR,,0.00,WeatherDisplay:10.37,2013-09-15 21:13:00,
2013-09-15 17:18:00,80.2,59.3,30.10,SSW,211,10.4,10.4,49,0.00,CLR,,0.00,WeatherDisplay:10.37,2013-09-15 21:18:00,
2013-09-15 17:23:00,80.4,58.9,30.10,SSW,210,9.2,9.2,48,0.00,CLR,,0.00,WeatherDisplay:10.37,2013-09-15 21:23:00,
2013-09-15 17:28:00,80.7,59.2,30.10,SSW,210,3.0,3.0,48,0.00,CLR,,0.00,WeatherDisplay:10.37,2013-09-15 21:28:00,
2013-09-15 17:33:00,81.0,58.9,30.10,WSW,248,8.1,8.1,47,0.00,CLR,,0.00,WeatherDisplay:10.37,2013-09-15 21:33:00,
2013-09-15 17:38:00,81.1,58.4,30.10,SSW,198,9.2,9.2,46,0.00,CLR,,0.00,WeatherDisplay:10.37,2013-09-15 21:38:00,
2013-09-15 17:43:00,81.1,59.0,30.10,SSW,210,1.2,1.2,47,0.00,CLR,,0.00,WeatherDisplay:10.37,2013-09-15 21:43:00,
2013-09-15 17:48:00,81.1,59.6,30.10,SSW,207,5.8,5.8,48,0.00,CLR,,0.00,WeatherDisplay:10.37,2013-09-15 21:48:00,
2013-09-15 17:53:00,81.0,58.9,30.10,SSW,206,6.9,6.9,47,0.00,CLR,,0.00,WeatherDisplay:10.37,2013-09-15 21:53:00,
2013-09-15 17:58:00,80.7,59.2,30.09,SW,217,9.2,9.2,48,0.00,CLR,,0.00,WeatherDisplay:10.37,2013-09-15 21:58:00,
2013-09-15 18:03:00,80.5,59.0,30.10,SW,234,1.2,0.0,48,0.00,CLR,,0.00,WeatherDisplay:10.37,2013-09-15 22:03:00,
2013-09-15 18:08:00,80.4,59.5,30.10,WNW,282,3.5,3.5,49,0.00,CLR,,0.00,WeatherDisplay:10.37,2013-09-15 22:08:00,
2013-09-15 18:13:00,80.2,59.3,30.10,West,281,0.0,2.1,49,0.00,CLR,,0.00,WeatherDisplay:10.37,2013-09-15 22:13:00,
2013-09-15 18:18:00,80.0,59.1,30.09,South,182,5.8,5.8,49,0.00,CLR,,0.00,WeatherDisplay:10.37,2013-09-15 22:18:00,
2013-09-15 18:23:00,79.7,59.4,30.10,SSW,205,5.8,5.8,50,0.00,CLR,,0.00,WeatherDisplay:10.37,2013-09-15 22:23:00,
2013-09-15 18:28:00,79.4,59.1,30.10,SSW,202,4.6,4.6,50,0.00,CLR,,0.00,WeatherDisplay:10.37,2013-09-15 22:28:00,
2013-09-15 18:33:00,79.1,59.4,30.10,SSW,198,3.5,3.5,51,0.00,CLR,,0.00,WeatherDisplay:10.37,2013-09-15 22:33:00,
2013-09-15 18:38:00,78.8,59.1,30.10,SSW,198,1.2,1.2,51,0.00,CLR,,0.00,WeatherDisplay:10.37,2013-09-15 22:38:00,
2013-09-15 18:43:00,78.5,59.4,30.09,SSW,198,1.2,0.0,52,0.00,CLR,,0.00,WeatherDisplay:10.37,2013-09-15 22:43:00,
2013-09-15 18:48:00,78.2,59.7,30.09,SSW,198,0.0,0.0,53,0.00,CLR,,0.00,WeatherDisplay:10.37,2013-09-15 22:48:00,
2013-09-15 18:53:00,77.7,59.7,30.09,SSW,198,3.5,3.5,54,0.00,CLR,,0.00,WeatherDisplay:10.37,2013-09-15 22:53:00,
2013-09-15 18:58:00,77.3,59.4,30.10,SSW,198,0.0,0.0,54,0.00,CLR,,0.00,WeatherDisplay:10.37,2013-09-15 22:58:00,
2013-09-15 19:03:00,76.8,59.4,30.09,SSW,198,0.0,0.0,55,0.00,CLR,,0.00,WeatherDisplay:10.37,2013-09-15 23:03:00,
2013-09-15 19:08:00,76.3,59.4,30.09,SSW,198,0.0,0.0,56,0.00,CLR,,0.00,WeatherDisplay:10.37,2013-09-15 23:08:00,
2013-09-15 19:13:00,75.8,59.5,30.09,SSW,198,0.0,0.0,57,0.00,CLR,,0.00,WeatherDisplay:10.37,2013-09-15 23:13:00,
2013-09-15 19:18:00,75.2,59.9,30.09,SSW,198,0.0,0.0,59,0.00,CLR,,0.00,WeatherDisplay:10.37,2013-09-15 23:18:00,
2013-09-15 19:23:00,74.5,59.7,30.09,SSW,198,0.0,0.0,60,0.00,CLR,,0.00,WeatherDisplay:10.37,2013-09-15 23:23:00,
2013-09-15 19:28:00,73.9,60.1,30.09,SSW,198,0.0,0.0,62,0.00,CLR,,0.00,WeatherDisplay:10.37,2013-09-15 23:28:00,
2013-09-15 19:33:00,73.3,59.9,30.09,SSW,198,0.0,0.0,63,0.00,CLR,,0.00,WeatherDisplay:10.37,2013-09-15 23:33:00,
2013-09-15 19:38:00,72.7,59.8,30.09,SSW,198,0.0,0.0,64,0.00,CLR,,0.00,WeatherDisplay:10.37,2013-09-15 23:38:00,
2013-09-15 19:43:00,72.2,59.8,30.09,SSW,198,0.0,0.0,65,0.00,CLR,,0.00,WeatherDisplay:10.37,2013-09-15 23:43:00,
2013-09-15 19:48:00,71.6,59.6,30.10,SSW,198,0.0,0.0,66,0.00,CLR,,0.00,WeatherDisplay:10.37,2013-09-15 23:48:00,
2013-09-15 19:53:00,71.1,59.6,30.10,SSW,198,0.0,0.0,67,0.00,CLR,,0.00,WeatherDisplay:10.37,2013-09-15 23:53:00,
2013-09-15 19:58:00,70.6,59.5,30.10,SSW,198,0.0,0.0,68,0.00,CLR,,0.00,WeatherDisplay:10.37,2013-09-15 23:58:00,
2013-09-15 20:03:00,70.0,59.4,30.09,SSW,198,0.0,0.0,69,0.00,CLR,,0.00,WeatherDisplay:10.37,2013-09-16 00:03:00,
2013-09-15 20:08:00,69.5,58.9,30.09,SSW,198,0.0,0.0,69,0.00,CLR,,0.00,WeatherDisplay:10.37,2013-09-16 00:08:00,
2013-09-15 20:13:00,69.0,58.8,30.10,SSW,198,0.0,0.0,70,0.00,CLR,,0.00,WeatherDisplay:10.37,2013-09-16 00:13:00,
2013-09-15 20:18:00,68.6,58.8,30.10,SSW,198,0.0,0.0,71,0.00,CLR,,0.00,WeatherDisplay:10.37,2013-09-16 00:18:00,
2013-09-15 20:23:00,68.1,58.7,30.10,SSW,198,0.0,0.0,72,0.00,CLR,,0.00,WeatherDisplay:10.37,2013-09-16 00:23:00,
2013-09-15 20:28:00,67.7,58.3,30.10,SSW,198,0.0,0.0,72,0.00,CLR,,0.00,WeatherDisplay:10.37,2013-09-16 00:28:00,
2013-09-15 20:33:00,67.2,57.9,30.10,SSW,198,0.0,0.0,72,0.00,CLR,,0.00,WeatherDisplay:10.37,2013-09-16 00:33:00,
2013-09-15 20:38:00,66.8,57.9,30.10,SSW,198,0.0,0.0,73,0.00,CLR,,0.00,WeatherDisplay:10.37,2013-09-16 00:38:00,
2013-09-15 20:43:00,66.5,58.3,30.10,SSW,198,0.0,0.0,75,0.00,CLR,,0.00,WeatherDisplay:10.37,2013-09-16 00:43:00,
2013-09-15 20:48:00,66.2,58.4,30.11,SSW,198,0.0,0.0,76,0.00,CLR,,0.00,WeatherDisplay:10.37,2013-09-16 00:48:00,
2013-09-15 20:53:00,65.9,58.5,30.11,SSW,198,0.0,0.0,77,0.00,CLR,,0.00,WeatherDisplay:10.37,2013-09-16 00:53:00,
2013-09-15 20:58:00,65.5,58.1,30.11,SSW,198,0.0,0.0,77,0.00,CLR,,0.00,WeatherDisplay:10.37,2013-09-16 00:58:00,
2013-09-15 21:03:00,65.2,57.8,30.10,SSW,198,0.0,0.0,77,0.00,CLR,,0.00,WeatherDisplay:10.37,2013-09-16 01:03:00,
2013-09-15 21:08:00,65.0,58.3,30.10,SSW,198,0.0,0.0,79,0.00,CLR,,0.00,WeatherDisplay:10.37,2013-09-16 01:08:00,
2013-09-15 21:13:00,64.7,58.0,30.11,SSW,198,0.0,0.0,79,0.00,CLR,,0.00,WeatherDisplay:10.37,2013-09-16 01:13:00,
2013-09-15 21:18:00,64.4,57.7,30.11,SSW,198,0.0,0.0,79,0.00,CLR,,0.00,WeatherDisplay:10.37,2013-09-16 01:18:00,
2013-09-15 21:23:00,64.1,57.5,30.11,SSW,198,0.0,0.0,79,0.00,CLR,,0.00,WeatherDisplay:10.37,2013-09-16 01:23:00,
2013-09-15 21:28:00,63.9,57.6,30.11,SSW,198,0.0,0.0,80,0.00,CLR,,0.00,WeatherDisplay:10.37,2013-09-16 01:28:00,
2013-09-15 21:33:00,63.7,57.8,30.11,SSW,198,0.0,0.0,81,0.00,CLR,,0.00,WeatherDisplay:10.37,2013-09-16 01:33:00,
2013-09-15 21:38:00,63.5,57.9,30.11,SSW,198,0.0,0.0,82,0.00,CLR,,0.00,WeatherDisplay:10.37,2013-09-16 01:38:00,
2013-09-15 21:43:00,63.3,57.7,30.11,SSW,198,0.0,0.0,82,0.00,CLR,,0.00,WeatherDisplay:10.37,2013-09-16 01:43:00,
2013-09-15 21:48:00,63.1,57.5,30.11,SSW,198,0.0,0.0,82,0.00,CLR,,0.00,WeatherDisplay:10.37,2013-09-16 01:48:00,
2013-09-15 21:53:00,63.0,58.1,30.11,SSW,198,0.0,0.0,84,0.00,CLR,,0.00,WeatherDisplay:10.37,2013-09-16 01:53:00,
2013-09-15 21:58:00,62.8,57.9,30.11,SSW,198,0.0,0.0,84,0.00,CLR,,0.00,WeatherDisplay:10.37,2013-09-16 01:58:00,
2013-09-15 22:03:00,62.6,58.0,30.11,SSW,198,0.0,0.0,85,0.00,CLR,,0.00,WeatherDisplay:10.37,2013-09-16 02:03:00,
2013-09-15 22:08:00,62.5,57.9,30.11,SSW,198,0.0,0.0,85,0.00,CLR,,0.00,WeatherDisplay:10.37,2013-09-16 02:08:00,
2013-09-15 22:13:00,62.3,57.7,30.11,SSW,198,0.0,0.0,85,0.00,CLR,,0.00,WeatherDisplay:10.37,2013-09-16 02:13:00,
2013-09-15 22:18:00,62.1,57.5,30.11,SSW,198,0.0,0.0,85,0.00,CLR,,0.00,WeatherDisplay:10.37,2013-09-16 02:18:00,
2013-09-15 22:23:00,62.0,57.4,30.11,SSW,198,0.0,0.0,85,0.00,CLR,,0.00,WeatherDisplay:10.37,2013-09-16 02:23:00,
2013-09-15 22:28:00,61.8,57.6,30.11,SSW,198,0.0,0.0,86,0.00,CLR,,0.00,WeatherDisplay:10.37,2013-09-16 02:28:00,
2013-09-15 22:33:00,61.7,57.5,30.11,SSW,198,0.0,0.0,86,0.00,CLR,,0.00,WeatherDisplay:10.37,2013-09-16 02:33:00,
2013-09-15 22:38:00,61.5,57.3,30.11,SSW,198,0.0,0.0,86,0.00,CLR,,0.00,WeatherDisplay:10.37,2013-09-16 02:38:00,
2013-09-15 22:43:00,61.4,57.5,30.11,SSW,198,0.0,0.0,87,0.00,CLR,,0.00,WeatherDisplay:10.37,2013-09-16 02:43:00,
2013-09-15 22:48:00,61.3,57.4,30.11,SSW,198,0.0,0.0,87,0.00,CLR,,0.00,WeatherDisplay:10.37,2013-09-16 02:48:00,
2013-09-15 22:53:00,61.2,57.9,30.11,SSW,198,0.0,0.0,89,0.00,CLR,,0.00,WeatherDisplay:10.37,2013-09-16 02:53:00,
2013-09-15 22:58:00,61.1,57.2,30.11,SSW,198,0.0,0.0,87,0.00,CLR,,0.00,WeatherDisplay:10.37,2013-09-16 02:58:00,
2013-09-15 23:03:00,61.0,57.4,30.11,SSW,198,0.0,0.0,88,0.00,CLR,,0.00,WeatherDisplay:10.37,2013-09-16 03:03:00,
2013-09-15 23:08:00,60.9,57.3,30.11,SSW,198,0.0,0.0,88,0.00,CLR,,0.00,WeatherDisplay:10.37,2013-09-16 03:08:00,
2013-09-15 23:13:00,60.8,57.2,30.11,SSW,198,0.0,0.0,88,0.00,CLR,,0.00,WeatherDisplay:10.37,2013-09-16 03:13:00,
2013-09-15 23:18:00,60.7,57.1,30.11,SSW,198,0.0,0.0,88,0.00,CLR,,0.00,WeatherDisplay:10.37,2013-09-16 03:18:00,
2013-09-15 23:23:00,60.7,57.4,30.11,SSW,198,0.0,0.0,89,0.00,CLR,,0.00,WeatherDisplay:10.37,2013-09-16 03:23:00,
2013-09-15 23:28:00,60.7,57.4,30.11,SSW,198,0.0,0.0,89,0.00,CLR,,0.00,WeatherDisplay:10.37,2013-09-16 03:28:00,
2013-09-15 23:33:00,60.6,57.3,30.11,SSW,198,0.0,0.0,89,0.00,CLR,,0.00,WeatherDisplay:10.37,2013-09-16 03:33:00,
2013-09-15 23:38:00,60.5,57.2,30.11,SSW,198,0.0,0.0,89,0.00,CLR,,0.00,WeatherDisplay:10.37,2013-09-16 03:38:00,
2013-09-15 23:43:00,60.5,57.9,30.11,SSW,198,0.0,0.0,91,0.00,CLR,,0.00,WeatherDisplay:10.37,2013-09-16 03:43:00,
2013-09-15 23:48:00,60.6,58.0,30.11,SSW,198,0.0,0.0,91,0.00,CLR,,0.00,WeatherDisplay:10.37,2013-09-16 03:48:00,
2013-09-15 23:53:00,60.6,58.0,30.11,SSW,198,0.0,0.0,91,0.00,CLR,,0.00,WeatherDisplay:10.37,2013-09-16 03:53:00,
2013-09-15 23:58:00,60.6,58.0,30.10,SSW,198,0.0,0.0,91,0.00,CLR,,0.00,WeatherDisplay:10.37,2013-09-16 03:58:00,